• Em Portugal
  • Lista de países
  • Para 7 dias
  • Temperatura da água
  • Mapas de satélite
  • Mapa do tempo
  • Widgets de tempo
  • user-avatar
    Iniciar Sessão

    Previsão horária em Poswietne

    Hoje, 19 Julho, Quinta-feira

    Tempo Temperatura Precipitação Vento Pressão Humidade
    00:00 +18°C° 0 mm 2 m/s 746 mmHg 90%
    01:00 +17°C° 0 mm 2 m/s 746 mmHg 92%
    02:00 +17°C° 0 mm 2 m/s 746 mmHg 93%
    03:00 +17°C° 0 mm 3 m/s 746 mmHg 94%
    04:00 +16°C° 0 mm 3 m/s 746 mmHg 95%
    05:00 +17°C° 0 mm 3 m/s 746 mmHg 92%
    06:00 +18°C° 0 mm 4 m/s 746 mmHg 89%
    07:00 +19°C° 0 mm 4 m/s 746 mmHg 86%
    08:00 +19°C° 0,2 mm 5 m/s 746 mmHg 84%
    09:00 +20°C° 0,2 mm 5 m/s 746 mmHg 82%
    10:00 +21°C° 0,2 mm 5 m/s 746 mmHg 79%
    11:00 +20°C° 0,5 mm 5 m/s 746 mmHg 82%
    12:00 +20°C° 0,5 mm 5 m/s 746 mmHg 85%
    13:00 +19°C° 0,5 mm 5 m/s 746 mmHg 88%
    14:00 +20°C° 0,2 mm 4 m/s 746 mmHg 86%
    15:00 +20°C° 0,2 mm 4 m/s 746 mmHg 83%
    16:00 +21°C° 0,2 mm 4 m/s 746 mmHg 81%
    17:00 +21°C° 0,1 mm 3 m/s 746 mmHg 81%
    18:00 +21°C° 0,1 mm 3 m/s 746 mmHg 81%
    19:00 +21°C° 0,1 mm 2 m/s 746 mmHg 81%
    20:00 +20°C° 0 mm 2 m/s 746 mmHg 84%
    21:00 +19°C° 0 mm 2 m/s 747 mmHg 87%
    22:00 +18°C° 0 mm 2 m/s 747 mmHg 90%
    23:00 +17°C° 0 mm 2 m/s 747 mmHg 91%

    Amanhã, 20 Julho, Sexta-feira

    Tempo Temperatura Precipitação Vento Pressão Humidade
    00:00 +18°C° 0 mm 1 m/s 747 mmHg 92%
    01:00 +16°C° 0 mm 1 m/s 747 mmHg 93%
    02:00 +15°C° 0 mm 1 m/s 747 mmHg 92%
    03:00 +15°C° 0 mm 1 m/s 747 mmHg 92%
    04:00 +14°C° 0 mm 1 m/s 747 mmHg 92%
    05:00 +16°C° 0 mm 1 m/s 747 mmHg 86%
    06:00 +17°C° 0 mm 2 m/s 747 mmHg 80%
    07:00 +18°C° 0 mm 2 m/s 747 mmHg 73%
    08:00 +20°C° 0 mm 2 m/s 747 mmHg 64%
    09:00 +23°C° 0 mm 2 m/s 747 mmHg 54%
    10:00 +25°C° 0 mm 3 m/s 747 mmHg 45%
    11:00 +25°C° 0 mm 3 m/s 747 mmHg 42%
    12:00 +26°C° 0 mm 3 m/s 747 mmHg 40%
    13:00 +27°C° 0 mm 3 m/s 746 mmHg 37%
    14:00 +27°C° 0 mm 3 m/s 746 mmHg 37%
    15:00 +27°C° 0 mm 3 m/s 746 mmHg 38%
    16:00 +27°C° 0 mm 2 m/s 746 mmHg 38%
    17:00 +26°C° 0 mm 2 m/s 745 mmHg 43%
    18:00 +25°C° 0 mm 2 m/s 745 mmHg 49%
    19:00 +24°C° 0 mm 1 m/s 745 mmHg 55%
    20:00 +22°C° 0 mm 1 m/s 745 mmHg 58%
    21:00 +21°C° 0 mm 1 m/s 745 mmHg 61%
    22:00 +18°C° 0 mm 0 m/s 746 mmHg 64%
    23:00 +17°C° 0 mm 0 m/s 745 mmHg 67%

    Depois de amanhã, 21 Julho, Sábado

    Tempo Temperatura Precipitação Vento Pressão Humidade
    00:00 +16°C° 0 mm 0 m/s 745 mmHg 69%
    01:00 +18°C° 0 mm 1 m/s 745 mmHg 72%
    02:00 +16°C° 0 mm 1 m/s 745 mmHg 73%
    03:00 +16°C° 0 mm 1 m/s 745 mmHg 74%
    04:00 +16°C° 0 mm 1 m/s 745 mmHg 76%
    05:00 +18°C° 0 mm 1 m/s 745 mmHg 71%
    06:00 +20°C° 0 mm 1 m/s 745 mmHg 67%
    07:00 +21°C° 0 mm 1 m/s 745 mmHg 63%
    08:00 +23°C° 0 mm 1 m/s 745 mmHg 57%
    09:00 +25°C° 0 mm 1 m/s 745 mmHg 51%
    10:00 +27°C° 0 mm 1 m/s 745 mmHg 45%
    11:00 +28°C° 0 mm 1 m/s 745 mmHg 42%
    12:00 +28°C° 0 mm 1 m/s 744 mmHg 39%
    13:00 +29°C° 0 mm 1 m/s 744 mmHg 36%
    14:00 +29°C° 0 mm 1 m/s 744 mmHg 36%
    15:00 +29°C° 0 mm 1 m/s 744 mmHg 35%
    16:00 +29°C° 0 mm 1 m/s 743 mmHg 35%
    17:00 +27°C° 0 mm 1 m/s 743 mmHg 41%
    18:00 +26°C° 0 mm 1 m/s 743 mmHg 46%
    19:00 +25°C° 0 mm 1 m/s 743 mmHg 52%
    20:00 +23°C° 0 mm 1 m/s 743 mmHg 55%
    21:00 +21°C° 0 mm 2 m/s 743 mmHg 59%
    22:00 +20°C° 0 mm 2 m/s 743 mmHg 63%
    23:00 +19°C° 0 mm 2 m/s 743 mmHg 66%

    22 Julho, Domingo

    Tempo Temperatura Precipitação Vento Pressão Humidade
    00:00 +18°C° 0 mm 2 m/s 743 mmHg 69%
    01:00 +19°C° 0 mm 1 m/s 743 mmHg 72%
    02:00 +19°C° 0 mm 1 m/s 743 mmHg 73%
    03:00 +18°C° 0 mm 1 m/s 743 mmHg 74%
    04:00 +18°C° 0 mm 1 m/s 743 mmHg 76%
    05:00 +19°C° 0 mm 1 m/s 743 mmHg 72%
    06:00 +21°C° 0 mm 1 m/s 743 mmHg 68%
    07:00 +22°C° 0 mm 1 m/s 743 mmHg 64%
    08:00 +24°C° 0 mm 1 m/s 743 mmHg 59%
    09:00 +25°C° 0 mm 2 m/s 743 mmHg 54%
    10:00 +27°C° 0 mm 2 m/s 743 mmHg 49%
    11:00 +27°C° 0,1 mm 2 m/s 743 mmHg 46%
    12:00 +28°C° 0,1 mm 2 m/s 743 mmHg 43%
    13:00 +28°C° 0,1 mm 2 m/s 743 mmHg 41%
    14:00 +28°C° 0,1 mm 3 m/s 743 mmHg 44%
    15:00 +27°C° 0,1 mm 3 m/s 743 mmHg 47%
    16:00 +26°C° 0,1 mm 4 m/s 743 mmHg 50%
    17:00 +25°C° 0 mm 3 m/s 743 mmHg 56%
    18:00 +24°C° 0 mm 3 m/s 743 mmHg 63%
    19:00 +21°C° 0 mm 2 m/s 744 mmHg 69%
    20:00 +21°C° 0,1 mm 2 m/s 744 mmHg 72%
    21:00 +20°C° 0,1 mm 2 m/s 744 mmHg 75%
    22:00 +19°C° 0,1 mm 2 m/s 745 mmHg 78%
    23:00 +19°C° 0,2 mm 2 m/s 745 mmHg 80%

    23 Julho, Segunda-feira

    Tempo Temperatura Precipitação Vento Pressão Humidade
    00:00 +19°C° 0,2 mm 2 m/s 745 mmHg 82%
    01:00 +18°C° 0,2 mm 2 m/s 745 mmHg 83%
    02:00 +18°C° 0,2 mm 2 m/s 745 mmHg 86%
    03:00 +17°C° 0,2 mm 2 m/s 745 mmHg 89%
    04:00 +16°C° 0,2 mm 2 m/s 745 mmHg 92%
    05:00 +17°C° 0,2 mm 2 m/s 746 mmHg 89%
    06:00 +18°C° 0,2 mm 2 m/s 746 mmHg 86%
    07:00 +19°C° 0,2 mm 2 m/s 746 mmHg 83%
    08:00 +20°C° 0,4 mm 3 m/s 746 mmHg 76%
    09:00 +22°C° 0,4 mm 3 m/s 746 mmHg 69%
    10:00 +24°C° 0,4 mm 3 m/s 746 mmHg 62%
    11:00 +25°C° 0,1 mm 3 m/s 746 mmHg 57%
    12:00 +26°C° 0,1 mm 3 m/s 746 mmHg 52%
    13:00 +27°C° 0,1 mm 3 m/s 746 mmHg 47%
    14:00 +27°C° 0 mm 3 m/s 746 mmHg 46%
    15:00 +27°C° 0 mm 3 m/s 746 mmHg 45%
    16:00 +27°C° 0 mm 3 m/s 746 mmHg 45%
    17:00 +26°C° 0 mm 3 m/s 746 mmHg 49%
    18:00 +25°C° 0 mm 2 m/s 746 mmHg 53%
    19:00 +24°C° 0 mm 2 m/s 746 mmHg 58%
    20:00 +23°C° 0 mm 1 m/s 747 mmHg 62%
    21:00 +21°C° 0 mm 1 m/s 747 mmHg 67%
    22:00 +20°C° 0 mm 1 m/s 747 mmHg 71%
    23:00 +19°C° 0 mm 1 m/s 747 mmHg 75%

    24 Julho, Terça-feira

    Tempo Temperatura Precipitação Vento Pressão Humidade
    00:00 +18°C° 0 mm 1 m/s 747 mmHg 78%
    01:00 +16°C° 0 mm 0 m/s 747 mmHg 81%
    02:00 +15°C° 0 mm 0 m/s 747 mmHg 82%
    03:00 +15°C° 0 mm 0 m/s 747 mmHg 84%
    04:00 +15°C° 0 mm 0 m/s 747 mmHg 85%
    05:00 +17°C° 0 mm 0 m/s 747 mmHg 78%
    06:00 +19°C° 0 mm 0 m/s 747 mmHg 72%
    07:00 +20°C° 0 mm 0 m/s 748 mmHg 65%
    08:00 +24°C° 0 mm 1 m/s 748 mmHg 60%
    09:00 +26°C° 0 mm 1 m/s 748 mmHg 56%
    10:00 +27°C° 0 mm 1 m/s 748 mmHg 51%
    11:00 +28°C° 0 mm 1 m/s 747 mmHg 50%
    12:00 +28°C° 0 mm 1 m/s 747 mmHg 49%
    13:00 +28°C° 0 mm 1 m/s 747 mmHg 48%
    14:00 +29°C° 0 mm 1 m/s 747 mmHg 48%
    15:00 +29°C° 0 mm 2 m/s 747 mmHg 48%
    16:00 +29°C° 0 mm 2 m/s 747 mmHg 48%
    17:00 +28°C° 0 mm 1 m/s 747 mmHg 53%
    18:00 +27°C° 0 mm 1 m/s 747 mmHg 58%
    19:00 +26°C° 0 mm 1 m/s 747 mmHg 62%
    20:00 +25°C° 0 mm 1 m/s 747 mmHg 67%
    21:00 +23°C° 0 mm 1 m/s 747 mmHg 71%
    22:00 +22°C° 0 mm 1 m/s 747 mmHg 75%
    23:00 +21°C° 0 mm 1 m/s 748 mmHg 77%
    Mostrar mais